This is the latest recevied weather packets stored in our database for station/object ZS1DFR-1. If no packets are shown the sender has not sent any weather packets the latest 10 day(s).
| Time | Temp. | Humidity | Pressure | Rain* | Wind** | Luminosity | Snow |
|---|---|---|---|---|---|---|---|
| 1777568905 | 16.67° C | 72% | 1014.4 hPa | 0 mm | - | - | - |
| 1777568005 | 16.67° C | 74% | 1013.7 hPa | 0 mm | - | - | - |
| 1777567105 | 16.67° C | 74% | 1013.7 hPa | 0 mm | - | - | - |
| 1777566205 | 17.22° C | 72% | 1013.5 hPa | 0 mm | - | - | - |
| 1777565305 | 17.22° C | 72% | 1013.5 hPa | 0 mm | - | - | - |
| 1777564405 | 17.78° C | 70% | 1013.5 hPa | 0 mm | - | - | - |
| 1777563505 | 17.78° C | 70% | 1013.5 hPa | 0 mm | - | - | - |
| 1777562605 | 18.33° C | 69% | 1013.2 hPa | 0 mm | - | - | - |
| 1777561705 | 18.33° C | 69% | 1013.2 hPa | 0 mm | - | - | - |
| 1777560805 | 18.89° C | 70% | 1013.2 hPa | 0 mm | - | - | - |
| 1777559905 | 18.89° C | 70% | 1013.2 hPa | 0 mm | - | - | - |
| 1777559005 | 18.89° C | 68% | 1012.9 hPa | 0 mm | - | - | - |
| 1777558105 | 18.89° C | 68% | 1012.9 hPa | 0 mm | - | - | - |
| 1777557205 | 19.44° C | 67% | 1012.9 hPa | 0 mm | - | - | - |
| 1777556305 | 19.44° C | 67% | 1012.9 hPa | 0 mm | - | - | - |
| 1777555405 | 19.44° C | 60% | 1012.7 hPa | 0 mm | - | - | - |
| 1777554505 | 19.44° C | 60% | 1012.7 hPa | 0 mm | - | - | - |
| 1777553605 | 19.44° C | 59% | 1012.6 hPa | 0 mm | - | - | - |
| 1777552705 | 19.44° C | 59% | 1012.6 hPa | 0 mm | - | - | - |
| 1777551805 | 19.44° C | 58% | 1012.5 hPa | 0 mm | - | - | - |
| 1777550905 | 19.44° C | 58% | 1012.5 hPa | 0 mm | - | - | - |
| 1777550005 | 19.44° C | 60% | 1013 hPa | 0 mm | - | - | - |
| 1777549105 | 19.44° C | 60% | 1013 hPa | 0 mm | - | - | - |
| 1777548205 | 19.44° C | 64% | 1013.2 hPa | 0 mm | - | - | - |
| 1777547305 | 19.44° C | 64% | 1013.2 hPa | 0 mm | - | - | - |
* Rain latest hour (hover to see other rain measurements)
** Current wind speed in m/s (hover to see current wind gust speed)